Location: Crescent
(42.8242°N, 73.7329°W)
Time: 11:57:24
(UTC+00:00)

Tiros 1 despin weight - Visible Passes

Search period start: 16 February 2026 00:00
Search period end: 26 February 2026 00:00
Orbit: 557 x 594 km, 48.2° (Epoch: 15 February)

Date Brightness Start Highest point End Pass type
(mag) Time Alt. Az. Time Alt. Az. Time Alt. Az.
16 Feb ? 01:10:38 10° WNW 01:12:32 25° NW 01:12:32 25° NW visible
16 Feb ? 23:32:27 10° WNW 23:36:26 39° N 23:38:52 20° ENE visible
17 Feb ? 01:13:09 10° WNW 01:15:02 26° WNW 01:15:02 26° WNW visible
17 Feb ? 23:35:03 10° WNW 23:39:05 43° N 23:41:24 22° ENE visible
18 Feb ? 01:15:41 10° WNW 01:17:34 26° WNW 01:17:34 26° WNW visible
18 Feb ? 23:37:36 10° WNW 23:41:42 50° NNE 23:43:58 24° E visible
19 Feb ? 01:18:14 10° WNW 01:20:09 25° W 01:20:09 25° W visible
19 Feb ? 23:40:06 10° WNW 23:44:16 61° NNE 23:46:36 25° E visible
20 Feb ? 01:20:52 10° WNW 01:22:46 23° W 01:22:46 23° W visible
20 Feb ? 23:42:35 10° WNW 23:46:48 80° NNE 23:49:18 24° ESE visible
21 Feb ? 01:23:39 10° W 01:25:29 19° WSW 01:25:29 19° WSW visible
21 Feb ? 23:45:05 10° WNW 23:49:17 75° SSW 23:52:06 20° SE visible
22 Feb ? 01:26:46 10° W 01:28:17 15° WSW 01:28:17 15° WSW visible
22 Feb ? 23:47:36 10° WNW 23:51:41 51° SSW 23:55:01 15° SE visible
23 Feb ? 23:50:13 10° WNW 23:54:02 34° SW 23:57:51 10° SSE visible
24 Feb ? 23:52:59 10° W 23:56:19 23° SW 23:59:40 10° SSE visible
